[[{"header":{"parameterUnit":"m.s-1","parameterCategory":1,"la1":30.2991,"la2":30.254,"lo1":-89.0895,"lo2":-89.0444,"dy":0.0017,"dx":0.0017,"nx":28,"ny":28,"refTime":"2024-04-25T21:00:00:Z","depth":0,"parameterNumber":2,"parameterNumberName":"U-component_of_WINDS"},"data":[0,0,0,0,0,0,0,0,0,0,0,0,0,0,0,0,0,0,0,0,0,0,0,0,0,0,0,0,0,0,0,0,0,0,0,0,0,0,0,0,0,0,0,0,0,0,0,0,0,0,0,0,0,0,0,0,0,0,-1.2343,-1.2343,0,-1.2303,-1.2302,-1.2302,-1.2289,-1.2289,-1.2289,-1.2289,-1.2246,-1.2245,-1.2243,0,0,0,0,0,0,0,0,0,0,0,0,0,-1.2408,-1.2407,-1.2343,-1.2343,-1.2342,-1.2303,-1.2302,-1.2302,-1.2289,-1.2289,-1.2289,-1.2289,-1.2246,-1.2245,-1.2243,0,0,0,0,0,0,0,0,0,0,0,0,0,-1.2375,-1.2407,-1.2343,-1.2331,-1.2329,-1.2303,-1.2302,-1.2301,-1.2289,-1.2289,-1.2289,-1.2289,-1.2247,-1.2245,-1.2243,-1.2225,0,0,-1.2237,-1.2236,0,0,0,0,0,0,0,0,-1.2377,-1.2373,-1.2333,-1.2332,-1.233,-1.2301,-1.2309,-1.2276,-1.2288,-1.2304,-1.2289,-1.2289,-1.2264,-1.2261,-1.2252,-1.2223,-1.2221,-1.2237,-1.2236,-1.2235,-1.2234,0,0,0,0,0,0,0,-1.2379,-1.2374,-1.2327,-1.2333,-1.2331,-1.2327,-1.2323,-1.2303,-1.2283,-1.2303,-1.2302,-1.2297,-1.2263,-1.2254,-1.2251,-1.2221,-1.2237,-1.2235,-1.2234,-1.2233,-1.2175,-1.2175,0,0,0,0,0,0,-1.2384,-1.2376,-1.2328,-1.2326,-1.2355,-1.2326,-1.2321,-1.231,-1.2283,-1.2279,-1.2297,-1.2297,-1.2257,-1.2254,-1.225,-1.2227,-1.2235,-1.2233,-1.2232,-1.2175,-1.2175,-1.2174,0,0,0,0,0,0,-1.2385,-1.238,-1.233,-1.2351,-1.2344,-1.2324,-1.2312,-1.2309,-1.23,-1.2279,-1.2275,-1.2292,-1.2258,-1.2252,-1.2231,-1.2225,-1.2232,-1.223,-1.2176,-1.2175,-1.2175,-1.2181,0,0,0,0,0,0,-1.2387,-1.238,-1.2373,-1.2351,-1.2343,-1.2313,-1.2312,-1.2308,-1.2297,-1.2296,-1.2273,-1.2269,-1.2257,-1.2235,-1.2229,-1.2222,-1.2229,-1.2176,-1.2175,-1.2175,-1.2181,-1.2181,-1.218,0,0,0,0,0,-1.239,-1.2376,-1.2373,-1.2367,-1.2334,-1.2312,-1.2308,-1.2295,-1.2297,-1.2289,-1.2276,-1.227,-1.2227,-1.2232,-1.2227,-1.2219,-1.2176,-1.2176,-1.2175,-1.2181,-1.2181,-1.218,0,0,0,0,0,0,-1.2398,-1.2373,-1.2369,-1.2349,-1.2333,-1.231,-1.2301,-1.2295,-1.2278,-1.2278,-1.2263,-1.2258,-1.2238,-1.2226,-1.2233,-1.22,-1.2201,-1.2199,-1.2208,-1.2207,-1.2207,-1.221,-1.2227,0,0,0,0,0,-1.2398,-1.2382,-1.2361,-1.2345,-1.2338,-1.2321,-1.2311,-1.2302,-1.2285,-1.2278,-1.2263,-1.2246,-1.2229,-1.2218,-1.2201,-1.218,-1.2174,-1.2172,-1.2171,-1.2171,-1.2169,-1.2157,-1.2156,-1.2172,-1.2172,-1.2172,0,0,-1.2396,-1.2381,-1.2372,-1.2346,-1.2333,-1.2317,-1.2315,-1.2298,-1.2286,-1.2276,-1.2255,-1.2243,-1.2223,-1.2203,-1.2193,-1.2192,-1.2164,-1.217,-1.217,-1.2168,-1.2156,-1.2155,-1.2153,-1.2171,-1.2171,-1.2171,0,0,-1.2386,-1.2373,-1.2358,-1.2345,-1.2325,-1.2314,-1.2311,-1.2289,-1.2281,-1.2261,-1.2252,-1.2238,-1.2208,-1.2195,-1.2184,-1.2169,-1.2163,-1.2164,-1.2161,-1.215,-1.2148,-1.2147,-1.2141,-1.2139,-1.2162,-1.2162,-1.2162,0,-1.2386,-1.2362,-1.235,-1.2334,-1.2323,-1.2314,-1.2298,-1.2286,-1.2262,-1.2254,-1.2255,-1.2218,-1.2204,-1.218,-1.2176,-1.2168,-1.2163,-1.2166,-1.215,-1.2148,-1.2147,-1.2141,-1.2139,-1.2163,-1.2163,-1.2163,-1.2163,0,-1.2364,-1.2347,-1.2338,-1.2315,-1.2303,-1.2287,-1.2273,-1.2262,-1.2255,-1.2244,-1.2223,-1.2206,-1.2186,-1.2179,-1.2172,-1.2154,-1.2155,-1.2153,-1.2153,-1.2146,-1.214,-1.2138,-1.2163,-1.2163,-1.2163,-1.2163,0,0,-1.2356,-1.2328,-1.2324,-1.2314,-1.2292,-1.2279,-1.2263,-1.2244,-1.2234,-1.2218,-1.2204,-1.218,-1.2178,-1.2166,-1.2157,-1.2148,-1.2137,-1.2147,-1.2146,-1.2145,-1.2115,-1.2116,-1.2114,-1.2133,-1.2133,-1.2132,-1.2117,0,-1.2342,-1.2313,-1.2302,-1.2278,-1.2263,-1.2254,-1.224,-1.2225,-1.2215,-1.22,-1.2189,-1.2172,-1.2171,-1.2163,-1.2153,-1.214,-1.213,-1.2141,-1.2119,-1.2118,-1.2123,-1.2111,-1.2111,-1.2097,-1.2114,-1.2114,-1.2114,0,-1.2321,-1.2305,-1.228,-1.2261,-1.2254,-1.2241,-1.2223,-1.2209,-1.2192,-1.2185,-1.2172,-1.2164,-1.2147,-1.215,-1.2126,-1.2133,-1.2124,-1.2116,-1.2115,-1.2112,-1.2115,-1.2106,-1.2093,-1.209,-1.211,-1.211,-1.2111,0,-1.2317,-1.2289,-1.2271,-1.2262,-1.2239,-1.2231,-1.2221,-1.2204,-1.2193,-1.2177,-1.217,-1.2152,-1.2142,-1.2128,-1.2115,-1.2119,-1.2092,-1.2094,-1.2085,-1.2086,-1.2079,-1.2079,-1.2063,-1.2075,-1.2075,-1.2075,-1.2075,0,-1.2301,-1.2286,-1.2269,-1.2257,-1.224,-1.2228,-1.2211,-1.22,-1.2186,-1.2172,-1.2164,-1.2151,-1.2136,-1.2121,-1.2111,-1.2092,-1.2088,-1.2081,-1.2079,-1.2081,-1.2082,-1.2074,-1.2074,-1.2074,-1.2074,-1.2074,-1.2075,0,-1.2293,-1.2281,-1.226,-1.224,-1.2235,-1.2223,-1.2206,-1.2195,-1.2184,-1.2167,-1.2162,-1.2146,-1.2128,-1.2115,-1.2091,-1.2085,-1.2064,-1.2062,-1.207,-1.2068,-1.206,-1.2061,-1.2037,-1.2033,-1.2049,-1.2049,-1.2049,0,-1.2283,-1.2271,-1.2251,-1.2241,-1.2231,-1.2216,-1.2205,-1.2193,-1.2182,-1.2162,-1.2153,-1.2135,-1.2119,-1.2091,-1.2077,-1.2059,-1.2056,-1.2049,-1.2053,-1.2056,-1.2055,-1.2055,-1.2054,-1.2048,-1.2048,-1.2048,-1.2048,0,-1.2267,-1.2262,-1.2247,-1.223,-1.2217,-1.2203,-1.2189,-1.2181,-1.2167,-1.2155,-1.2137,-1.2125,-1.2102,-1.2083,-1.2064,-1.2054,-1.2048,-1.2047,-1.2044,-1.2045,-1.205,-1.2047,-1.2067,-1.2047,-1.2047,-1.2047,-1.2047,-1.2047,-1.2257,-1.2246,-1.223,-1.2213,-1.2202,-1.2189,-1.2177,-1.2166,-1.2151,-1.2131,-1.2125,-1.2106,-1.209,-1.2064,-1.2054,-1.2038,-1.2038,-1.2034,-1.2033,-1.2032,-1.2031,-1.2054,-1.2035,-1.2035,-1.2035,-1.2035,-1.2035,0,-1.2239,-1.2229,-1.2214,-1.2195,-1.2182,-1.2179,-1.2163,-1.2152,-1.2136,-1.2122,-1.2107,-1.2087,-1.2069,-1.2054,-1.2036,-1.2027,-1.2024,-1.2022,-1.2022,-1.202,-1.2033,-1.2037,-1.2025,-1.2025,-1.2025,-1.2025,-1.2025,-1.2025,-1.2229,-1.221,-1.2203,-1.2179,-1.2168,-1.215,-1.2141,-1.2129,-1.2118,-1.2096,-1.2081,-1.2072,-1.2057,-1.2038,-1.2022,-1.2018,-1.2012,-1.2011,-1.2006,-1.2018,-1.2019,-1.202,-1.2024,-1.201,-1.201,-1.1994,-1.1994,-1.1994]},{"header":{"parameterUnit":"m.s-1","parameterCategory":1,"la1":30.2991,"la2":30.254,"lo1":-89.0895,"lo2":-89.0444,"dy":0.0017,"dx":0.0017,"nx":28,"ny":28,"refTime":"2024-04-25T21:00:00:Z","depth":0,"parameterNumber":3,"parameterNumberName":"V-component_of_WINDS"},"data":[0,0,0,0,0,0,0,0,0,0,0,0,0,0,0,0,0,0,0,0,0,0,0,0,0,0,0,0,0,0,0,0,0,0,0,0,0,0,0,0,0,0,0,0,0,0,0,0,0,0,0,0,0,0,0,0,0,0,0.9083,0.9083,0,0.9052,0.9051,0.9051,0.9033,0.9033,0.9033,0.9033,0.9,0.8999,0.8998,0,0,0,0,0,0,0,0,0,0,0,0,0,0.9129,0.9128,0.9083,0.9083,0.9083,0.9052,0.9051,0.9051,0.9033,0.9033,0.9033,0.9033,0.9,0.8999,0.8998,0,0,0,0,0,0,0,0,0,0,0,0,0,0.9104,0.9128,0.9083,0.907,0.9068,0.9052,0.9051,0.9051,0.9033,0.9033,0.9033,0.9033,0.9001,0.8999,0.8998,0.8993,0,0,0.8995,0.8994,0,0,0,0,0,0,0,0,0.9106,0.9103,0.9072,0.9071,0.9069,0.9046,0.9055,0.9031,0.9033,0.9046,0.9033,0.9032,0.9015,0.9013,0.9007,0.8991,0.899,0.8994,0.8994,0.8993,0.8993,0,0,0,0,0,0,0,0.9108,0.9104,0.9071,0.9072,0.907,0.9066,0.9062,0.9051,0.9032,0.9045,0.9044,0.904,0.9015,0.9008,0.9006,0.8989,0.8994,0.8993,0.8993,0.8992,0.8967,0.8967,0,0,0,0,0,0,0.9111,0.9106,0.9072,0.907,0.9088,0.9065,0.9061,0.9054,0.9032,0.9028,0.904,0.904,0.9011,0.9008,0.9005,0.8997,0.8993,0.8992,0.8991,0.8967,0.8967,0.8967,0,0,0,0,0,0,0.9112,0.9109,0.9073,0.9087,0.9082,0.9064,0.9056,0.9053,0.9047,0.9028,0.9025,0.9038,0.901,0.9007,0.8996,0.8996,0.8991,0.899,0.8967,0.8967,0.8967,0.8981,0,0,0,0,0,0,0.9114,0.9109,0.9107,0.9087,0.9082,0.9064,0.9056,0.9052,0.9045,0.9043,0.9025,0.9022,0.901,0.8998,0.8995,0.8994,0.8989,0.8967,0.8967,0.8967,0.8981,0.8982,0.8983,0,0,0,0,0,0.9115,0.9112,0.9107,0.9103,0.9078,0.9064,0.9061,0.9048,0.9045,0.9042,0.903,0.9022,0.8996,0.8997,0.8993,0.8992,0.8967,0.8967,0.8967,0.898,0.8981,0.8983,0,0,0,0,0,0,0.9131,0.9109,0.9103,0.9093,0.9081,0.9061,0.9058,0.905,0.9038,0.9037,0.9022,0.9018,0.9008,0.8999,0.9,0.8986,0.8981,0.898,0.8992,0.8993,0.8994,0.8996,0.8988,0,0,0,0,0,0.9134,0.9124,0.9105,0.9098,0.9092,0.9076,0.907,0.9061,0.9047,0.9042,0.9029,0.9017,0.9006,0.8999,0.8988,0.8979,0.8975,0.8977,0.8978,0.8979,0.8978,0.8973,0.8974,0.8968,0.8968,0.8968,0,0,0.9138,0.9125,0.912,0.9101,0.909,0.9081,0.9072,0.9062,0.9055,0.904,0.9029,0.902,0.9005,0.8995,0.899,0.8987,0.8979,0.8979,0.898,0.8979,0.8973,0.8974,0.8975,0.8968,0.8968,0.8968,0,0,0.9142,0.9131,0.9124,0.9114,0.9098,0.9087,0.9086,0.9067,0.906,0.9049,0.9038,0.9029,0.9011,0.9001,0.8993,0.8994,0.8985,0.899,0.8996,0.8991,0.8991,0.8992,0.8992,0.8992,0.899,0.899,0.899,0,0.915,0.9135,0.9121,0.9112,0.9104,0.9091,0.9084,0.9074,0.9056,0.9051,0.9048,0.9024,0.9013,0.9001,0.9001,0.8996,0.8993,0.8992,0.8992,0.8993,0.8993,0.8993,0.8993,0.8991,0.8991,0.8991,0.8991,0,0.9145,0.9135,0.9131,0.9114,0.9106,0.9098,0.9083,0.9076,0.9068,0.9058,0.9046,0.9033,0.9019,0.9015,0.9007,0.9002,0.9001,0.8995,0.899,0.8994,0.8994,0.8994,0.8992,0.8992,0.8991,0.8991,0,0,0.9157,0.9133,0.9132,0.9123,0.9105,0.9097,0.9089,0.9075,0.907,0.9058,0.905,0.9035,0.903,0.9022,0.9012,0.9008,0.9009,0.9003,0.9003,0.9005,0.9003,0.9007,0.9007,0.9004,0.9004,0.9004,0.9004,0,0.9158,0.9142,0.913,0.9119,0.9109,0.9097,0.9089,0.9077,0.9068,0.9058,0.9048,0.9037,0.9031,0.9026,0.9022,0.901,0.9009,0.901,0.8997,0.8997,0.9001,0.9007,0.9011,0.9012,0.9004,0.9004,0.9004,0,0.9157,0.9145,0.9133,0.9116,0.9112,0.9105,0.9092,0.9083,0.907,0.9063,0.9054,0.9044,0.9035,0.9031,0.9018,0.9019,0.9013,0.9007,0.9007,0.9005,0.9,0.9005,0.9012,0.9012,0.9003,0.9003,0.9003,0,0.9167,0.9148,0.9139,0.9132,0.9112,0.9108,0.9099,0.9086,0.9079,0.9067,0.9062,0.905,0.9043,0.9033,0.9021,0.9019,0.9009,0.9004,0.9004,0.9004,0.9002,0.9002,0.9007,0.8998,0.8998,0.8998,0.8998,0,0.9169,0.9162,0.9143,0.9137,0.9129,0.9115,0.9107,0.9098,0.9086,0.9078,0.9066,0.9059,0.9043,0.9034,0.9024,0.9015,0.9012,0.9006,0.9004,0.9007,0.9008,0.9003,0.9003,0.8998,0.8998,0.8998,0.8998,0,0.9179,0.9166,0.9154,0.9136,0.9132,0.9127,0.9111,0.9105,0.9095,0.9085,0.9082,0.9066,0.9055,0.9042,0.9026,0.902,0.9011,0.9007,0.9016,0.9014,0.9014,0.9014,0.9016,0.9016,0.9008,0.9008,0.9008,0,0.9181,0.9176,0.9157,0.9151,0.9143,0.9133,0.9125,0.9111,0.9104,0.9089,0.9084,0.9072,0.9062,0.9045,0.9032,0.902,0.9016,0.9017,0.9014,0.9018,0.9016,0.9016,0.9016,0.9018,0.9018,0.9018,0.9019,0,0.9186,0.918,0.917,0.9157,0.9149,0.9138,0.9127,0.9123,0.9106,0.9099,0.9087,0.9079,0.9064,0.9052,0.9038,0.903,0.9022,0.902,0.9019,0.9022,0.9027,0.9025,0.9018,0.902,0.902,0.902,0.9019,0.9019,0.9192,0.9187,0.9173,0.9162,0.9152,0.9142,0.9135,0.9124,0.9114,0.91,0.9093,0.9082,0.9069,0.905,0.9041,0.9032,0.903,0.9028,0.9028,0.9028,0.9029,0.9029,0.903,0.903,0.903,0.903,0.903,0,0.9197,0.9188,0.9177,0.9162,0.9154,0.9147,0.9134,0.9127,0.9117,0.9106,0.9096,0.9083,0.9071,0.9058,0.9046,0.9041,0.9037,0.9038,0.9038,0.9037,0.9032,0.9034,0.9042,0.9042,0.9042,0.9042,0.9042,0.9042,0.9198,0.9189,0.9181,0.9166,0.9157,0.9145,0.9139,0.913,0.912,0.9106,0.9097,0.9088,0.9075,0.9062,0.9052,0.9048,0.9044,0.9046,0.9042,0.9038,0.9037,0.9036,0.9038,0.9046,0.9046,0.9047,0.9047,0.9047]}]]